Weather reports worldwide

Advertisment
Lindenberg, Germany (10393): temperature & dewpoint: 06.12.2018 00:00:00 - 12.12.2018 00:00:00 (CET)Lindenberg, Germany (10393): temperature 5cm & temperature -5cm: 06.12.2018 00:00:00 - 12.12.2018 00:00:00 (CET)Lindenberg, Germany (10393): temperature -20cm & temperature -100cm: 06.12.2018 00:00:00 - 12.12.2018 00:00:00 (CET)Lindenberg, Germany (10393): wind speed & gusts: 06.12.2018 00:00:00 - 12.12.2018 00:00:00 (CET)Lindenberg, Germany (10393): wind direction: 06.12.2018 00:00:00 - 12.12.2018 00:00:00 (CET)Lindenberg, Germany (10393): reduced air pressure: 06.12.2018 00:00:00 - 12.12.2018 00:00:00 (CET)Lindenberg, Germany (10393): visibility: 06.12.2018 00:00:00 - 12.12.2018 00:00:00 (CET)Lindenberg, Germany (10393): sunshine duration: 06.12.2018 00:00:00 - 12.12.2018 00:00:00 (CET)Lindenberg, Germany (10393): precipitation: 06.12.2018 00:00:00 - 12.12.2018 00:00:00 (CET)
Date & Time tt [°C] td [°C] tt 5cm [°C] tt -5cm [°C] tt -20cm [°C] tt -100cm [°C] ff [km/h] ff [kn] fx [km/h] fx [kn] dd ppp [hPa] vv [km] sd [min] rr [mm]
12.12.2018 00:00:00 2,5 1,9 2,2 2,9 4,2 7,0 12 7 26 14 NNW 1018,4 10 0 0,1
11.12.2018 23:00:00 2,6 2,2 2,3 3,0 4,2 7,0 10 6 21 12 NW 1018,1 12 0 0,0
11.12.2018 22:00:00 2,6 2,0 2,1 2,9 4,3 7,0 9 5 22 12 NNW 1017,7 25 0 0,0
11.12.2018 21:00:00 2,7 2,0 2,3 3,0 4,3 7,0 9 5 26 14 N 1017,0 15 0 0,1
11.12.2018 20:00:00 2,9 2,1 2,3 3,1 4,4 7,0 12 6 27 14 N 1016,6 20 0 0,2
11.12.2018 19:00:00 2,8 2,5 2,6 3,2 4,4 7,0 12 6 23 13 NW 1016,2 8 0 0,5
11.12.2018 18:00:00 2,3 1,9 2,2 3,1 4,5 7,0 13 7 29 16 WNW 1015,8 15 0 0,8
11.12.2018 17:00:00 2,2 1,6 1,9 3,2 4,6 7,0 13 7 23 12 NW 1015,4 20 0 0,3
11.12.2018 16:00:00 2,1 1,3 2,0 3,5 4,6 7,0 13 7 22 12 NW 1015,3 20 0 0,2
11.12.2018 15:00:00 2,9 0,5 2,8 3,9 4,6 7,0 13 7 24 13 NW 1015,0 30 0 0,0
11.12.2018 14:00:00 3,5 0,2 3,5 4,4 4,5 7,0 11 6 19 11 NW 1014,2 40 0 0,0
11.12.2018 13:00:00 3,4 0,3 3,3 4,4 4,4 7,0 11 6 24 13 NNW 1013,8 45 4 0,0
11.12.2018 12:00:00 3,3 0,3 3,3 4,1 4,3 7,0 13 7 31 17 NNW 1013,3 40 19 0,0
11.12.2018 11:00:00 2,8 0,5 2,4 3,3 4,3 7,1 16 9 32 17 NNW 1012,8 40 0 0,0
11.12.2018 10:00:00 3,0 1,5 2,7 3,4 4,3 7,1 16 9 32 18 NNW 1011,9 30 0 0,0
11.12.2018 09:00:00 3,0 2,3 2,7 3,2 4,3 7,1 15 8 41 22 NW 1010,9 20 0 0,3
11.12.2018 08:00:00 3,4 2,1 2,8 3,2 4,3 7,1 25 14 40 21 WNW 1010,1 10 0 0,1
11.12.2018 07:00:00 3,4 2,3 2,8 3,2 4,3 7,1 23 12 42 23 WNW 1009,4 8 0 0,8
11.12.2018 06:00:00 3,6 2,1 2,9 3,2 4,3 7,1 25 13 44 24 WNW 1009,1 8 0 1,6
11.12.2018 05:00:00 3,7 2,2 3,0 3,2 4,3 7,1 24 13 37 20 W 1009,0 10 0 0,3
11.12.2018 04:00:00 3,9 1,8 3,0 3,2 4,3 7,1 22 12 42 23 W 1009,4 10 0 0,2
11.12.2018 03:00:00 4,0 1,2 3,1 3,1 4,3 7,1 23 12 39 21 W 1009,4 20 0 0,0
11.12.2018 02:00:00 3,9 1,4 3,3 3,1 4,4 7,1 21 11 39 21 WNW 1009,6 30 0 0,0
11.12.2018 01:00:00 3,8 1,6 3,1 3,1 4,4 7,1 22 12 41 22 W 1009,6 30 0 0,0
11.12.2018 00:00:00 3,5 1,9 3,0 3,1 4,4 7,1 19 11 33 18 WNW 1009,6 30 0 0,0
10.12.2018 23:00:00 3,0 2,1 2,7 3,0 4,5 7,1 18 10 41 22 WNW 1009,7 30 0 0,2
10.12.2018 22:00:00 3,1 1,7 2,6 3,0 4,5 7,1 26 14 44 24 W 1009,6 15 0 0,0
10.12.2018 21:00:00 3,4 1,4 2,8 3,0 4,5 7,1 25 13 41 22 W 1009,7 40 0 0,1
10.12.2018 20:00:00 3,0 1,4 2,3 3,0 4,6 7,1 26 14 49 27 W 1009,9 15 0 0,0
10.12.2018 19:00:00 3,5 0,7 2,9 3,0 4,7 7,1 29 16 52 28 W 1010,0 20 0 0,0
10.12.2018 18:00:00 4,0 0,4 3,5 3,1 4,8 7,1 29 15 48 26 W 1010,2 40 0 0,0
10.12.2018 17:00:00 4,5 0,0 3,8 3,1 4,9 7,1 27 15 49 26 W 1010,1 40 0 0,0
10.12.2018 16:00:00 3,9 0,5 3,2 3,1 5,0 7,1 25 14 45 24 W 1010,2 35 0 0,0
10.12.2018 15:00:00 4,3 0,4 3,7 3,8 5,0 7,1 27 14 48 26 W 1009,9 35 1 0,1
10.12.2018 14:00:00 4,8 0,0 4,6 4,1 5,0 7,1 22 12 54 29 W 1009,8 40 0 0,0
10.12.2018 13:00:00 4,8 0,0 4,5 4,1 5,0 7,1 26 14 51 27 W 1009,9 50 0 0,0
10.12.2018 12:00:00 4,7 0,4 4,6 4,1 5,0 7,1 29 16 50 27 W 1009,9 50 0 0,0
10.12.2018 11:00:00 4,7 0,6 4,5 4,1 5,0 7,1 27 15 47 25 WNW 1009,8 50 0 0,0
10.12.2018 10:00:00 4,5 0,7 4,1 3,8 5,0 7,0 27 15 48 26 W 1009,4 50 0 0,0
10.12.2018 09:00:00 4,5 1,0 3,5 3,6 5,1 7,0 26 14 43 23 WNW 1008,8 40 0 0,0
10.12.2018 08:00:00 4,8 0,7 4,3 3,6 5,2 7,0 24 13 49 26 W 1007,7 35 0 0,0
10.12.2018 07:00:00 5,0 1,1 4,3 3,7 5,2 7,0 28 15 50 27 W 1007,1 40 0 0,0
10.12.2018 06:00:00 5,1 1,2 4,5 3,8 5,3 7,0 26 14 49 26 W 1006,1 40 0 0,0
10.12.2018 05:00:00 5,0 1,6 4,3 3,9 5,4 7,0 25 13 46 25 W 1005,5 25 0 0,0
10.12.2018 04:00:00 5,1 1,4 4,5 4,0 5,5 7,0 28 15 53 29 WNW 1004,8 30 0 0,0
10.12.2018 03:00:00 5,6 1,6 5,0 4,3 5,6 7,0 29 16 48 26 W 1003,8 30 0 0,0
10.12.2018 02:00:00 5,8 2,0 5,1 4,4 5,7 7,0 29 16 53 28 WNW 1002,8 30 0 0,0
10.12.2018 01:00:00 6,2 2,1 5,4 4,6 5,8 7,0 29 16 58 31 W 1001,8 20 0 0,0
10.12.2018 00:00:00 6,5 2,0 5,8 4,7 5,9 7,0 31 17 65 35 W 1000,9 30 0 0,0
09.12.2018 23:00:00 6,6 2,1 5,7 5,0 6,0 7,0 29 16 61 33 W 999,5 30 0 0,0
09.12.2018 22:00:00 6,9 2,8 6,2 5,3 6,0 7,0 28 15 51 28 W 998,6 30 0 0,0
09.12.2018 21:00:00 6,8 3,8 6,1 5,5 6,0 7,0 30 16 52 28 W 997,8 30 0 0,0
09.12.2018 20:00:00 6,6 4,2 5,8 5,5 6,1 7,0 28 15 50 27 W 996,9 40 0 0,0
09.12.2018 19:00:00 6,8 4,4 6,2 5,4 6,2 7,0 30 16 47 26 WSW 996,0 40 0 0,0
09.12.2018 18:00:00 6,5 4,4 5,6 5,4 6,2 7,0 23 12 40 22 WSW 995,4 40 0 0,0
09.12.2018 17:00:00 6,7 4,6 6,1 5,9 6,3 7,0 25 13 38 21 WSW 994,7 40 0 0,0
09.12.2018 16:00:00 6,7 4,7 6,1 6,2 6,3 7,0 21 11 36 20 WSW 994,3 50 0 0,0
09.12.2018 15:00:00 6,9 4,9 6,5 6,6 6,3 6,9 21 12 36 19 W 993,5 50 0 0,0
09.12.2018 14:00:00 6,9 5,3 6,6 6,8 6,2 6,9 21 12 39 21 WSW 992,8 50 0 0,0
09.12.2018 13:00:00 7,1 5,5 6,7 6,9 6,1 6,9 21 12 36 20 WSW 992,4 50 0 0,0
09.12.2018 12:00:00 7,0 5,3 6,7 6,8 6,0 6,9 24 13 45 24 W 992,1 40 0 0,0
09.12.2018 11:00:00 6,6 5,4 6,1 6,2 5,9 6,9 27 15 65 35 WSW 991,6 20 0 0,6
09.12.2018 10:00:00 6,9 5,6 6,2 6,1 5,9 6,9 27 15 41 22 WSW 991,0 20 0 0,2
09.12.2018 09:00:00 7,1 5,4 6,1 6,0 5,8 6,9 29 16 50 27 WSW 990,0 15 0 0,0
09.12.2018 08:00:00 7,6 5,0 6,6 5,9 5,8 6,9 33 18 56 31 WSW 989,0 20 0 0,1
09.12.2018 07:00:00 7,8 5,7 6,9 5,9 5,7 6,9 28 15 48 26 SW 988,6 40 0 0,0
09.12.2018 06:00:00 7,6 6,0 6,7 5,7 5,6 6,9 28 15 42 23 SW 988,3 40 0 0,6
09.12.2018 05:00:00 7,1 5,7 6,3 5,4 5,6 6,9 21 12 35 19 SW 988,9 40 0 0,0
09.12.2018 04:00:00 6,8 6,0 6,2 5,5 5,5 6,9 17 9 39 21 SSW 989,7 40 0 0,8
09.12.2018 03:00:00 6,6 5,6 5,8 5,2 5,5 6,8 20 11 43 23 SSW 991,1 12 0 0,9
09.12.2018 02:00:00 7,0 4,0 6,1 4,8 5,5 6,8 19 10 40 21 SSW 992,7 30 0 0,1
09.12.2018 01:00:00 6,6 3,4 5,9 4,4 5,6 6,8 19 10 37 20 SSW 994,7 40 0 0,0
09.12.2018 00:00:00 6,2 3,0 4,8 3,8 5,8 6,8 17 9 35 19 SSW 996,4 50 0 0,0
08.12.2018 23:00:00 7,0 3,1 5,6 4,3 5,9 6,8 21 11 45 25 SW 997,6 50 0 0,0
08.12.2018 22:00:00 7,3 3,3 5,9 5,0 6,0 6,8 24 13 45 25 SW 998,4 50 0 0,0
08.12.2018 21:00:00 7,7 3,7 6,4 5,5 6,0 6,8 29 16 51 28 SW 999,0 50 0 0,0
08.12.2018 20:00:00 7,5 3,8 6,7 5,5 6,1 6,8 27 14 47 26 SW 999,4 50 0 0,0
08.12.2018 19:00:00 7,0 4,2 6,0 5,5 6,1 6,7 26 14 46 25 SW 999,7 50 0 0,0
08.12.2018 18:00:00 6,4 4,5 5,6 5,5 6,2 6,7 25 14 44 24 SW 999,9 50 0 0,0
08.12.2018 17:00:00 6,4 4,6 5,5 5,6 6,2 6,7 27 15 47 26 SW 1000,2 35 0 0,4
08.12.2018 16:00:00 6,9 3,9 5,3 5,8 6,3 6,7 32 18 63 34 WSW 1000,6 10 0 0,4
08.12.2018 15:00:00 7,9 2,7 7,2 6,1 6,3 6,7 29 16 55 30 SW 1000,7 50 0 0,0
08.12.2018 14:00:00 8,0 2,6 7,7 6,5 6,2 6,7 29 16 53 29 SW 1001,0 50 17 0,0
08.12.2018 13:00:00 7,6 2,7 7,4 6,6 6,1 6,6 32 17 58 31 SW 1001,8 50 1 0,0
08.12.2018 12:00:00 7,3 2,0 6,9 6,3 6,0 6,6 30 16 51 28 SW 1002,3 40 1 0,0
08.12.2018 11:00:00 6,8 1,8 6,7 6,0 6,0 6,6 29 16 54 29 SW 1003,3 30 18 0,0
08.12.2018 10:00:00 6,0 2,0 5,8 5,1 6,0 6,6 26 14 49 26 SW 1003,8 40 25 0,0
08.12.2018 09:00:00 5,6 1,7 5,2 4,4 6,2 6,6 24 13 39 21 SW 1004,3 40 0 0,0
08.12.2018 08:00:00 5,5 2,1 5,0 4,7 6,4 6,6 21 11 37 20 SW 1004,3 40 0 0,0
08.12.2018 07:00:00 6,2 2,1 5,3 4,7 6,6 6,5 19 10 40 21 SW 1004,2 45 0 0,0
08.12.2018 06:00:00 6,8 2,3 5,9 5,1 6,8 6,5 25 13 47 26 WSW 1003,5 45 0 0,0
08.12.2018 05:00:00 7,1 3,1 6,0 5,6 7,0 6,5 26 14 46 25 W 1001,8 30 0 0,0
08.12.2018 04:00:00 7,1 3,8 6,1 6,0 7,2 6,5 31 17 53 28 W 1001,0 30 0 0,0
08.12.2018 03:00:00 7,7 4,7 6,8 6,9 7,3 6,5 30 16 71 38 W 1000,1 25 0 0,0
08.12.2018 02:00:00 9,2 7,1 8,3 7,7 7,3 6,5 31 17 57 31 WSW 998,1 25 0 0,1
08.12.2018 01:00:00 9,8 6,8 9,0 7,7 7,4 6,5 29 16 47 26 SW 997,4 30 0 0,0
08.12.2018 00:00:00 9,5 7,3 8,8 7,8 7,4 6,4 19 10 36 19 SW 997,5 45 0 0,0
07.12.2018 23:00:00 9,4 7,7 8,4 7,9 7,5 6,4 19 11 34 18 SW 997,8 45 0 0,0
07.12.2018 22:00:00 9,7 8,6 8,9 8,5 7,5 6,4 18 10 37 20 SW 998,2 25 0 0,8
07.12.2018 21:00:00 9,8 9,2 9,1 8,7 7,4 6,4 23 12 42 23 SW 999,2 4,0 0 2,5
07.12.2018 20:00:00 9,8 9,4 9,3 8,7 7,4 6,4 14 7 34 18 SW 999,6 6 0 2,1
07.12.2018 19:00:00 10,1 9,5 9,5 8,8 7,4 6,4 13 7 26 14 SSW 1000,3 12 0 0,0
07.12.2018 18:00:00 10,4 9,9 9,8 9,0 7,3 6,4 14 8 28 15 SSW 1001,3 15 0 0,4
07.12.2018 17:00:00 10,7 10,1 10,0 9,1 7,3 6,4 14 8 32 17 SW 1002,5 3,0 0 0,2
07.12.2018 16:00:00 10,9 10,3 10,2 9,3 7,2 6,4 17 9 30 16 SW 1003,6 8 0 0,2
07.12.2018 15:00:00 11,1 10,3 10,4 9,5 7,0 6,4 17 9 29 15 SW 1004,5 12 0 0,3
07.12.2018 14:00:00 11,5 10,1 10,8 9,8 6,8 6,4 21 12 35 19 SW 1005,4 30 0 0,0
07.12.2018 13:00:00 11,6 10,0 11,3 9,8 6,6 6,4 19 10 36 19 SW 1006,1 45 0 0,0
07.12.2018 12:00:00 11,3 10,0 10,9 9,4 6,3 6,4 22 12 32 17 SW 1007,2 40 0 0,0
07.12.2018 11:00:00 10,9 10,0 10,4 8,9 6,1 6,4 21 11 35 19 SW 1008,3 10 0 0,0
07.12.2018 10:00:00 10,4 10,0 9,8 8,3 5,9 6,4 20 11 34 19 SW 1009,0 6 0 0,0
07.12.2018 09:00:00 10,1 9,7 9,5 7,9 5,7 6,4 23 13 35 19 SW 1009,5 5 0 0,1
07.12.2018 08:00:00 9,9 9,5 9,3 7,6 5,5 6,4 22 12 35 19 SW 1009,7 2,5 0 0,2
07.12.2018 07:00:00 9,7 9,2 9,1 7,4 5,4 6,4 23 12 35 19 SW 1009,9 2,0 0 0,1
07.12.2018 06:00:00 9,4 9,0 8,7 7,1 5,2 6,4 22 12 36 20 SW 1010,3 3,0 0 0,6
07.12.2018 05:00:00 10,0 7,8 8,6 6,8 5,0 6,4 22 12 36 20 SW 1010,8 20 0 0,1
07.12.2018 04:00:00 9,5 7,5 8,2 6,6 4,9 6,4 22 12 34 19 SW 1011,4 20 0 0,1
07.12.2018 03:00:00 9,3 7,3 8,3 6,3 4,7 6,4 21 11 37 20 SW 1012,2 30 0 0,0
07.12.2018 02:00:00 8,9 7,5 7,9 6,1 4,5 6,4 21 11 36 19 SW 1012,9 20 0 0,0
07.12.2018 01:00:00 8,5 7,7 7,6 5,8 4,4 6,5 18 10 28 15 SW 1013,4 6 0 0,0
07.12.2018 00:00:00 8,1 7,6 7,3 5,6 4,2 6,5 15 8 26 14 SW 1014,2 5 0 0,0
06.12.2018 23:00:00 7,9 7,5 7,2 5,4 4,1 6,5 15 8 30 16 SW 1014,4 6 0 0,1
06.12.2018 22:00:00 7,6 7,4 7,0 5,0 3,9 6,5 16 8 26 14 SW 1014,7 4,0 0 0,1
06.12.2018 21:00:00 6,7 6,5 6,2 4,6 3,8 6,5 12 7 23 12 SW 1015,1 4,0 0 0,3
06.12.2018 20:00:00 6,2 5,9 5,7 4,3 3,7 6,5 13 7 24 13 SSW 1015,5 6 0 0,0
06.12.2018 19:00:00 5,4 4,9 5,0 4,0 3,6 6,5 10 5 19 11 SSW 1015,8 8 0 0,2
06.12.2018 18:00:00 5,7 4,0 4,7 3,9 3,5 6,5 10 5 21 11 SSW 1016,2 4,0 0 0,2
06.12.2018 17:00:00 5,8 2,5 5,3 3,7 3,4 6,5 11 6 24 13 SSW 1016,1 25 0 0,0
06.12.2018 16:00:00 5,5 1,3 5,1 3,7 3,2 6,5 12 7 21 11 S 1015,4 30 0 0,0
06.12.2018 15:00:00 5,4 0,7 5,0 3,8 3,0 6,6 10 5 17 9 S 1016,4 35 0 0,0
06.12.2018 14:00:00 5,5 0,2 5,3 4,0 2,7 6,6 9 5 16 9 S 1016,7 40 0 0,0
06.12.2018 13:00:00 5,2 0,4 5,6 3,6 2,5 6,6 9 5 21 11 S 1016,5 40 0 0,0
06.12.2018 12:00:00 4,5 -0,8 4,4 2,8 2,2 6,6 11 6 20 11 S 1017,5 40 0 0,0
06.12.2018 11:00:00 4,2 -1,4 4,0 1,8 2,1 6,6 10 5 22 12 S 1018,2 40 16 0,0
06.12.2018 10:00:00 3,6 -1,4 3,4 0,3 2,1 6,6 13 7 31 17 SSE 1017,6 35 15 0,0
06.12.2018 09:00:00 2,8 -1,8 2,3 0,3 2,1 6,6 11 6 25 13 SSE 1018,2 35 0 0,0
06.12.2018 08:00:00 2,5 -2,1 1,9 0,3 2,1 6,6 12 7 23 12 SE 1018,5 40 0 0,0
06.12.2018 07:00:00 2,3 -2,1 1,7 0,3 2,2 6,6 11 6 24 13 SSE 1018,6 40 0 0,0
06.12.2018 06:00:00 2,0 -1,8 1,5 0,2 2,2 6,6 11 6 23 12 SE 1019,0 35 0 0,0
06.12.2018 05:00:00 1,6 -1,4 0,9 0,2 2,2 6,6 12 7 25 14 SSE 1019,9 20 0 0,0
06.12.2018 04:00:00 1,5 -1,4 0,9 0,2 2,3 6,6 13 7 24 13 SSE 1021,0 20 0 0,0
06.12.2018 03:00:00 1,6 -1,3 0,9 0,2 2,3 6,7 13 7 23 12 SSE 1021,7 20 0 0,0
06.12.2018 02:00:00 1,6 -1,3 0,8 0,3 2,4 6,7 13 7 28 15 SSE 1022,0 20 0 0,0
06.12.2018 01:00:00 1,3 -1,4 0,3 0,3 2,5 6,7 11 6 25 14 SSE 1022,8 20 0 0,0
06.12.2018 00:00:00 0,8 -1,5 -0,4 0,3 2,5 6,7 14 7 23 13 SE 1023,9 30 0 0,0

tt = temperature
td = dewpoint
tt 5cm = temperature 5cm
tt -5cm = temperature -5cm
tt -20cm = temperature -20cm
tt -100cm = temperature -100cm
ff = wind speed
fx = gusts
dd = wind direction
ppp = reduced air pressure
vv = visibility
sd = sunshine duration
rr = precipitation

Next stations